Weather History for Rocky Mount, NC

Change the Weather History Date:

Tuesday, May 28, 2013

  Actual Average Record
Temperature  
Mean Temperature 70 °F -  
Max Temperature 84 °F 80 °F 94 °F (1967)
Min Temperature 57 °F 58 °F 39 °F (1961)
Cooling Degree Days 6    
Growing Degree Days 20 (Base 50)    
Moisture  
Dew Point 60 °F    
Average Humidity 65    
Maximum Humidity 87    
Minimum Humidity 46    
Precipitation  
Precipitation 0.00 in - - ()
Sea Level Pressure  
Sea Level Pressure 30.22 in    
Wind  
Wind Speed 4 mph (SSW)    
Max Wind Speed 13 mph    
Max Gust Speed 18 mph    
Visibility 10 miles    
Events      
Averages and records for this station are not official NWS values.
T = Trace of Precipitation, MM = Missing Value Source: NWS Daily Summary

Daily Weather History Graph

Daily Weather History Graph

Search for Another Location

Airport:

Trip Planner

Search our weather history database for the weather conditions in past years. The results will help you decide how hot, cold, wet, or windy it might be!

Date:

Astronomy

May. 28, 2013 Rise Set
Actual Time 5:58 AM EDT 8:20 PM EDT
Civil Twilight 5:28 AM EDT 8:49 PM EDT
Nautical Twilight 4:52 AM EDT 9:25 PM EDT
Astronomical Twilight 4:12 AM EDT 10:05 PM EDT
Moon 11:46 PM EDT 9:41 AM EDT
Length of Visible Light 15h 20m
Length of Day
14h 22m
Waning Gibbous, 83% of the Moon is Illuminated
May 28
Waning Gibbous
May 31
Last Quarter
Jun 8
New
Jun 16
First Quarter
Jun 23
Full

Hourly Weather History & Observations

Time (EDT) Temp. Heat Index Dew Point Humidity Pressure Visibility Wind Dir Wind Speed Gust Speed Precip Events Conditions
12:53 AM 63.0 °F - 53.1 °F 70% 30.23 in 10.0 mi South 4.6 mph - N/A   Clear
1:53 AM 62.1 °F - 54.0 °F 75% 30.23 in 10.0 mi Calm Calm - N/A   Clear
2:53 AM 61.0 °F - 54.0 °F 78% 30.22 in 10.0 mi Calm Calm - N/A   Clear
3:53 AM 60.1 °F - 54.0 °F 80% 30.21 in 10.0 mi South 3.5 mph - N/A   Clear
4:53 AM 60.1 °F - 54.0 °F 80% 30.21 in 10.0 mi Calm Calm - N/A   Clear
5:53 AM 57.9 °F - 54.0 °F 87% 30.22 in 10.0 mi Calm Calm - N/A   Clear
6:53 AM 60.1 °F - 55.9 °F 86% 30.25 in 10.0 mi Calm Calm - N/A   Clear
7:53 AM 66.0 °F - 57.9 °F 75% 30.27 in 10.0 mi SSW 4.6 mph - N/A   Clear
8:53 AM 71.1 °F - 61.0 °F 70% 30.27 in 10.0 mi SSW 4.6 mph - N/A   Clear
9:53 AM 75.0 °F - 62.1 °F 64% 30.27 in 10.0 mi SSW 6.9 mph - N/A   Clear
10:53 AM 75.9 °F - 62.1 °F 62% 30.27 in 10.0 mi SSW 4.6 mph - N/A   Mostly Cloudy
11:53 AM 80.1 °F 81.2 °F 62.1 °F 54% 30.26 in 10.0 mi SW 11.5 mph - N/A   Clear
12:53 PM 81.0 °F 81.9 °F 62.1 °F 52% 30.25 in 10.0 mi SW 8.1 mph - N/A   Scattered Clouds
1:53 PM 82.9 °F 84.0 °F 63.0 °F 51% 30.22 in 10.0 mi South 9.2 mph - N/A   Partly Cloudy
2:53 PM 84.0 °F 84.9 °F 63.0 °F 49% 30.19 in 10.0 mi South 8.1 mph 18.4 mph N/A   Partly Cloudy
3:53 PM 82.9 °F 83.7 °F 62.1 °F 49% 30.19 in 10.0 mi SSW 12.7 mph - N/A   Mostly Cloudy
4:53 PM 84.0 °F 84.5 °F 62.1 °F 47% 30.18 in 10.0 mi SSW 9.2 mph - N/A   Partly Cloudy
5:53 PM 84.0 °F 84.4 °F 61.0 °F 46% 30.17 in 10.0 mi South 9.2 mph - N/A   Scattered Clouds
6:53 PM 82.0 °F 82.7 °F 61.0 °F 49% 30.16 in 10.0 mi South 5.8 mph - N/A   Clear
7:53 PM 79.0 °F - 61.0 °F 54% 30.16 in 10.0 mi South 6.9 mph - N/A   Clear
8:53 PM 75.9 °F - 63.0 °F 64% 30.17 in 10.0 mi South 6.9 mph - N/A   Clear
9:53 PM 75.0 °F - 63.0 °F 66% 30.18 in 10.0 mi South 5.8 mph - N/A   Clear
10:53 PM 72.0 °F - 63.0 °F 73% 30.19 in 10.0 mi South 6.9 mph - N/A   Clear
11:53 PM 71.1 °F - 63.0 °F 75% 30.20 in 10.0 mi South 5.8 mph - N/A   Clear